Lexington Weather

Lexington, Massachusetts, USA

46°F
10/26/2020 6:11am 
  • Lexington Conditions: Light rain, Overcast
  • Temperature: 46.2°F / 7.9°CWarmer 1.1°F than last hour.
  • Dew Point: 41.9°FIncreased 2.2°Fsince last hour.
  • Relative Humidity: 85%Increased 4.0% since last hour.
  • Wind: Wind from N N 1 mph, 10-min avg: 1 mph, gust: 4 mph
  • Barometer: 30.27 in Steady
  • Visibility: 10 miles
  • Rain Today: 0.00 in
  •   

Regional Weather Roundup
for Boston / Norton, MA

        
000
ASUS41 KBOX 201604
RWRBOX

REGIONAL WEATHER ROUNDUP
NATIONAL WEATHER SERVICE BOSTON/NORTON MA
1200 PM EDT TUE OCT 20 2020

NOTE:  "FAIR" INDICATES FEW OR NO CLOUDS BELOW 12,000 FEET WITH NO 
SIGNIFICANT WEATHER AND/OR OBSTRUCTIONS TO VISIBILITY.

MAZALL-201700-
EASTERN MASSACHUSETTS
  
CITY           SKY/WX    TMP DP  RH WIND       PRES   REMARKS
BOSTON         PTSUNNY   62  57  83 S12       30.26F                  
BEVERLY        CLOUDY    64  57  78 S10       30.24F                  
LAWRENCE       CLOUDY    63  57  81 S7        30.26F                  
BEDFORD        PTSUNNY   67  58  72 S15G23    30.24F                  
BLUE HILL        N/A     59  56  89 S10       30.26S                  
NORWOOD        CLOUDY    63  56  78 S7        30.27S                  
MARSHFIELD     CLOUDY    64  63  94 VRB7G14   30.26F                  
PLYMOUTH       CLOUDY    62  59  90 SW8       30.27R                  
TAUNTON        CLOUDY    66  60  81 SW7       30.27R                  
NEW BEDFORD    CLOUDY    64  61  90 S9        30.26R                  
$$

MAZALL-201700-
CAPE COD AND THE ISLANDS
  
CITY           SKY/WX    TMP DP  RH WIND       PRES   REMARKS
FALMOUTH       CLOUDY    63  63 100 S16       30.26F                  
HYANNIS        CLOUDY    62  61  96 S13G21    30.25F                  
CHATHAM        LGT RAIN  60  58  92 S8        30.29F                  
PROVINCETOWN   CLOUDY    61  60  97 S8        30.27R                  
NANTUCKET      CLOUDY    61  58  90 SE10      30.28F                  
MARTHAS VNYRD  CLOUDY    63  60  90 S15       30.27F                  
$$
 
MAZALL-201700-
CENTRAL AND WESTERN MASSACHUSETTS
  
CITY           SKY/WX    TMP DP  RH WIND       PRES   REMARKS
WORCESTER      CLOUDY    62  56  80 S10       30.26R                  
FITCHBURG      CLOUDY    63  56  78 SE8       30.25S                  
ORANGE         CLOUDY    61  56  83 CALM      30.26R                  
SPRINGFIELD    CLOUDY    64  57  77 SW8       30.22F                  
WESTFIELD      PTSUNNY   66  59  78 S7        30.23S                  
NORTH ADAMS    PTSUNNY   65  55  70 SW8       30.23S                  
PITTSFIELD     CLOUDY    61  56  83 SW8       30.23R                  
$$
 
RIZALL-201700-
RHODE ISLAND
  
CITY           SKY/WX    TMP DP  RH WIND       PRES   REMARKS
PROVIDENCE     CLOUDY    63  61  93 S5        30.28R                  
NEWPORT        CLOUDY    62  62 100 S13       30.26R                  
BLOCK ISLAND   LGT RAIN  62  61  96 S7        30.27R                  
SMITHFIELD     CLOUDY    60  60 100 SW3         N/A  FOG              
WESTERLY       CLOUDY    65  59  81 SE8       30.26S                  
$$
 
CTZALL-201700-
CONNECTICUT
  
CITY           SKY/WX    TMP DP  RH WIND       PRES   REMARKS
BRADLEY INTL   PTSUNNY   68  58  70 S14       30.23S                  
HARTFORD       CLOUDY    65  59  81 S10       30.24S                  
BRIDGEPORT     CLOUDY    64  62  93 SE5       30.25S                  
DANBURY        CLOUDY    64  61  90 CALM      30.26S                  
GROTON         LGT RAIN  64  62  93 SE3       30.26R FOG              
NEW HAVEN      CLOUDY    66  64  93 S7        30.25F FOG              
CHESTER        DRZL/FOG N/A N/A N/A S7        30.26F VSB 1            
MERIDEN        CLOUDY    65  60  84 S7        30.24F                  
WILLIMANTIC    CLOUDY    60  58  92 S5        30.27S FOG              
OXFORD         CLOUDY    63  61  93 SW7       30.26R                  
$$

MEZ002-015-021-024-NHZ003-005-008-011-012-014-VTZ005-008-201700-
NORTHERN NEW ENGLAND
  
CITY           SKY/WX    TMP DP  RH WIND       PRES   REMARKS
PORTLAND ME    CLOUDY    58  55  90 S7        30.26R                  
BANGOR ME      CLOUDY    59  50  72 S14       30.21F                  
CONCORD NH     CLOUDY    58  52  80 S8        30.24F                  
MANCHESTER NH  CLOUDY    61  54  77 S7        30.24S                  
NASHUA NH      CLOUDY    61  58  90 CALM      30.25F                  
PORTSMOUTH NH  LGT RAIN  59  56  88 W6        30.24                   
JAFFREY NH     CLOUDY    58  54  86 S5        30.26R                  
KEENE NH       CLOUDY    61  56  83 S12       30.24F                  
BURLINGTON VT  LGT RAIN  57  55  93 W5        30.20R FOG              
MT. WASHINGTON FOG       41  41 100 W47G59      N/A  VSB 1/16WCI  27  
$$

NYZ052-076-201700-
EASTERN NEW YORK
  
CITY           SKY/WX    TMP DP  RH WIND       PRES   REMARKS
ALBANY         CLOUDY    59  57  93 S8        30.21F                  
NEW YORK CITY  CLOUDY    67  62  84 S7        30.24S                  
$$
 
ANZALL-201700-
MARINE OBSERVATIONS
  
STATION/POSITION TIME  TEMP    WIND        PRES    VSBY  WAVE
                       AIR SEA DIR/SP/G                  HT/PER
                 (UTC) (F)     (DEG/KT/KT) (MB)    (MI)  (FT/S)
BOSTON BUOY      1550   58 57  200/  2/  4 1024.0F         2/ 8
BUZZARDS BAY     1500          140/ 15/ 16 1025.5F
NANTUCKET SOUND  1550      61  150/ 10/ 12   N/A           1
MASS BAY-STELLWA 1504   58 56  200/ 10/ 12 1024.6F  1 7/8  3/ 8
ISLE OF SHOALS   1500   57     210/ 12/ 13 1024.6R
S OF BLOCK IS    1526      63                N/A           3/ 9
$$

......................KEY.........................
  SKY/WX - SKY CONDITION/PRESENT WEATHER
  TMP    - TEMPERATURE IN FAHRENHEIT
  DWPT   - DEWPOINT IN FAHRENHEIT
  RH     - RELATIVE HUMIDITY IN PERCENT
  WIND   - DIRECTION AND SPEED IN MPH
  PRES   - MEAN SEA LEVEL PRESSURE IN INCHES OF HG
  WCI    - WIND CHILL INDEX
  VSB    - VISIBILITY IN MILES
  HX     - HEAT INDEX
  TC     - TEMPERATURE IN CELSIUS
  VRB    - VARIABLE WIND DIRECTION
  N/A    - NOT AVAILABLE
  
      

Other recent Regional Weather Roundups

Mon Oct 26, 5:04am

Mon Oct 26, 4:04am

Mon Oct 26, 3:04am

Mon Oct 26, 2:04am

Mon Oct 26, 1:04am

Mon Oct 26, 12:04am

Sun Oct 25, 11:05pm

Sun Oct 25, 10:04pm

Sun Oct 25, 9:04pm

Sun Oct 25, 8:04pm

Sun Oct 25, 7:04pm

Sun Oct 25, 6:04pm

Sun Oct 25, 5:04pm

Sun Oct 25, 4:05pm

Sun Oct 25, 3:04pm

Sun Oct 25, 2:04pm

Sun Oct 25, 1:04pm

Sun Oct 25, 12:04pm

Sun Oct 25, 11:04am

Sun Oct 25, 10:04am

Sun Oct 25, 9:04am

Sun Oct 25, 8:04am

Sun Oct 25, 7:04am

Sun Oct 25, 6:04am

Sun Oct 25, 5:04am

Sun Oct 25, 4:04am

Sun Oct 25, 3:04am

Sun Oct 25, 2:04am

Sun Oct 25, 1:05am

Sun Oct 25, 12:04am

Sat Oct 24, 11:04pm

Sat Oct 24, 10:04pm

Sat Oct 24, 9:04pm

Sat Oct 24, 8:04pm

Sat Oct 24, 7:04pm

Sat Oct 24, 6:04pm

Sat Oct 24, 5:05pm

Sat Oct 24, 4:04pm

Sat Oct 24, 3:04pm

Sat Oct 24, 2:04pm

Sat Oct 24, 1:05pm

Sat Oct 24, 12:04pm

Sat Oct 24, 11:05am

Sat Oct 24, 10:05am

Sat Oct 24, 9:04am

Sat Oct 24, 8:04am

Sat Oct 24, 7:04am

Sat Oct 24, 6:04am

Sat Oct 24, 5:04am

Sat Oct 24, 4:04am

Sat Oct 24, 3:04am

Sat Oct 24, 2:04am

Sat Oct 24, 1:05am

Sat Oct 24, 12:04am

Fri Oct 23, 11:04pm

Fri Oct 23, 10:04pm

Fri Oct 23, 9:04pm

Fri Oct 23, 8:05pm

Fri Oct 23, 7:04pm

Fri Oct 23, 6:04pm

Fri Oct 23, 5:05pm

Fri Oct 23, 4:04pm

Fri Oct 23, 3:04pm

Fri Oct 23, 2:05pm

Fri Oct 23, 1:04pm

Fri Oct 23, 12:04pm

Fri Oct 23, 11:04am

Fri Oct 23, 10:04am

Fri Oct 23, 9:04am

Fri Oct 23, 8:04am

Fri Oct 23, 7:04am

Fri Oct 23, 6:04am

Fri Oct 23, 5:04am

Fri Oct 23, 4:04am

Fri Oct 23, 3:04am

Fri Oct 23, 2:04am

Fri Oct 23, 1:04am

Fri Oct 23, 12:04am

Thu Oct 22, 11:04pm

Thu Oct 22, 10:04pm

Thu Oct 22, 9:05pm

Thu Oct 22, 8:04pm

Thu Oct 22, 7:05pm

Thu Oct 22, 6:04pm

Thu Oct 22, 5:04pm

Thu Oct 22, 4:05pm

Thu Oct 22, 3:04pm

Thu Oct 22, 2:05pm

Thu Oct 22, 1:04pm

Thu Oct 22, 12:04pm

Thu Oct 22, 11:04am

Thu Oct 22, 10:05am

Thu Oct 22, 9:04am

Thu Oct 22, 8:05am

Thu Oct 22, 7:04am

Thu Oct 22, 6:04am

Thu Oct 22, 5:04am

Thu Oct 22, 4:04am

Thu Oct 22, 3:04am

Thu Oct 22, 2:04am

Thu Oct 22, 1:04am

Thu Oct 22, 12:04am

Wed Oct 21, 11:05pm

Wed Oct 21, 10:04pm

Wed Oct 21, 9:04pm

Wed Oct 21, 8:04pm

Wed Oct 21, 7:04pm

Wed Oct 21, 6:04pm

Wed Oct 21, 5:05pm

Wed Oct 21, 4:04pm

Wed Oct 21, 3:04pm

Wed Oct 21, 2:05pm

Wed Oct 21, 1:04pm

Wed Oct 21, 12:04pm

Wed Oct 21, 11:04am

Wed Oct 21, 10:04am

Wed Oct 21, 9:04am

Wed Oct 21, 8:04am

Wed Oct 21, 7:04am

Wed Oct 21, 6:04am

Wed Oct 21, 5:04am

Wed Oct 21, 4:04am

Wed Oct 21, 3:04am

Wed Oct 21, 2:04am

Wed Oct 21, 1:04am

Wed Oct 21, 12:04am

Tue Oct 20, 11:05pm

Tue Oct 20, 10:04pm

Tue Oct 20, 9:04pm

Tue Oct 20, 8:05pm

Tue Oct 20, 7:04pm

Tue Oct 20, 6:04pm

Tue Oct 20, 5:05pm

Tue Oct 20, 4:04pm

Tue Oct 20, 3:05pm

Tue Oct 20, 2:07pm

Tue Oct 20, 1:04pm

Tue Oct 20, 11:04am

Tue Oct 20, 10:05am

Tue Oct 20, 9:04am

Tue Oct 20, 8:04am

Tue Oct 20, 7:04am

Tue Oct 20, 6:04am

Tue Oct 20, 5:04am

Tue Oct 20, 4:04am

Tue Oct 20, 3:04am

Tue Oct 20, 2:04am

Tue Oct 20, 1:04am

Tue Oct 20, 12:04am

Mon Oct 19, 11:04pm

Mon Oct 19, 10:04pm

Mon Oct 19, 9:04pm

Mon Oct 19, 8:04pm

Mon Oct 19, 7:04pm

Mon Oct 19, 6:04pm

Mon Oct 19, 5:04pm

Mon Oct 19, 4:04pm

Mon Oct 19, 3:04pm

Mon Oct 19, 2:04pm

Mon Oct 19, 1:05pm

Mon Oct 19, 12:04pm

Mon Oct 19, 11:04am

Mon Oct 19, 10:04am

Mon Oct 19, 9:04am

Mon Oct 19, 8:04am

Mon Oct 19, 7:04am

Mon Oct 19, 6:04am

Mon Oct 19, 5:04am

Meta data:

ID: 570bc3d3-f812-407a-b831-b13ee72f44e0
Link: https://api.weather.gov/products/570bc3d3-f812-407a-b831-b13ee72f44e0